World > North America > United States > North Carolina

Baldwin, North Carolina Regional Weather

Lat: 36.35N, Lon: 81.53W
Wx Zone: NCZ001
Warning NWS WEATHER ALERT - (More Info. Click Here) Warning
Feedback

Baldwin, NC Regional Weather

Expires:201910171600;;848233
ASUS42 KRAH 171510
RWRRAH
NORTH CAROLINA WEATHER ROUNDUP
NATIONAL WEATHER SERVICE RALEIGH NC
1100 AM EDT THU OCT 17 2019

NOTE: "FAIR" INDICATES FEW OR NO CLOUDS BELOW 12,000 FEET WITH NO
SIGNIFICANT WEATHER AND/OR OBSTRUCTIONS TO VISIBILITY.


NCZ001-053-055-056-065-067-171600-
WESTERN NORTH CAROLINA
  
CITY           SKY/WX    TMP DP  RH WIND       PRES   REMARKS
ASHEVILLE      FAIR      49  32  52 N14G28    29.97S                  
JEFFERSON      CLOUDY    40  31  69 W8G22     29.91R WCI  35          
MORGANTON      FAIR      54  31  41 NW5       29.97S                  
HICKORY        FAIR      53  34  48 NW6       29.94R                  
WILKESBORO     NOT AVBL                                               
RUTHERFORDTON  FAIR      54  32  43 NW3       29.97S                  
MOUNT AIRY     FAIR      54  35  48 NW10G18   29.92R                  
BOONE          PTSUNNY   40  31  67 NW17G26   29.92S WCI  32          
$$
 

SKY/WX - Weather  TMP - Temperature  DP - Dew Point  RH - Relative Humidity
WIND - Wind Direction/Speed PRES - Barometric Pressure VSB - Visibility
WCI - Wind Chill Index E13G22 Wind - East Wind 13 mph/Gusts of 22 mph